Weather in San Francisco de Macoris

Dominican Republic     19°17′34″N   70°14′59″W
temp.,
°C
wind,
m/s
gust,
m/s
humid.,
%
clouds,
%
prec.,
mm/h
press.,
hPa
HPBL,
m
5 march, fri
fri523:00+22se117896 0.0 101623
02:00+19sse119362 0.0 101423
05:00+19ene11955 0.0 101423
08:00+20ne11892 0.0 101558
11:00+26se24630 0.0 1016593
14:00+31se44460 0.0 10131386
17:00+29se45520 0.0 10121063
20:00+23ese226237 0.0 101462
6 march, sat
sat623:00+19e01762 0.0 101523
02:00+18e12841 0.0 101423
05:00+17e11900 0.0 101323
08:00+19e00820 0.0 101537
11:00+26se35650 0.0 1016635
14:00+30se67590 0.3 10141267
17:00+27se587416 2.9 1013925
20:00+23ese49848 3.3 1015363
7 march, sun
sun723:00+21ese25930 0.0 1016125
02:00+20ese12973 0.0 101554
05:00+20e119829 0.0 101529
08:00+21se019447 0.0 1017112
11:00+27se247055 0.0 1018805
14:00+31se335131 0.0 10161452
17:00+27ne237420 1.6 1015284
20:00+23ne228959 5.3 101758
8 march, mon
mon823:00+22nw239092 0.9 101875
02:00+21nnw229069 0.9 101736
05:00+21nw129047 0.0 101726
08:00+21nw238766 0.0 101997
11:00+28nnw345830 0.0 10201231
14:00+28nne456637 2.6 10181171
17:00+26n367239 1.8 1017490
20:00+21n379048 2.6 1019241
9 march, tue
tue923:00+21n269464 2.9 1020291
02:00+21nne299553 8.2 1018437
05:00+21ne269693 6.8 1017236
08:00+21ne159593 12.2 1019231
11:00+23ene379064 8.1 1020628
14:00+25e468168 13.1 1018902
17:00+24ne4781100 2.8 1016775
20:00+21nne2489100 3.1 1018181